sat.trackr.live / text

‹ back to catalog

STARLINK-4166

NORAD 53291 · 2022-086BB

PAYLOAD ACTIVE UNKNOWN

§ Identity

Operator
Country
US
Launch date
2022-07-24
Launch site
AFETR
Launch vehicle
Mass (kg)
RCS (m²)

Purposes: comms

External: N2YO · Heavens-Above · Gunter

§ Orbital elements

Epoch: 2026-09-20T00:13:53.105088Z

Period
93.79 min
Inclination
53.1608°
Eccentricity
0.0001170
Mean motion
15.35398181 rev/d
Perigee alt
458.9 km
Apogee alt
460.5 km
Semi-major
6,837.9 km
B*
-6.9499e-5
RAAN
11.8889°
Arg perigee
63.5789°
Mean anomaly
296.5334°
Rev number
23,079

§ Raw data

STARLINK-41661 53291U 22086BB  26263.00964242 -.00002804  00000+0 -69499-4 0  99902 53291  53.1608  11.8889 0001170  63.5789 296.5334 15.35398181230794

JSON: /api/v1/satellites/53291 · /tle

For live sub-satellite position, see the globe view (requires WebGL).

§ Visibility from observer

Set your observer location to see the next 7 days of passes ≥ 10°. The values pass through the URL so the page stays shareable.

No JS? Fill the form by hand. The geolocation button needs JavaScript.